[[{"header":{"parameterUnit":"m.s-1","parameterCategory":1,"la1":30.2991,"la2":30.254,"lo1":-89.0895,"lo2":-89.0444,"dy":0.0017,"dx":0.0017,"nx":28,"ny":28,"refTime":"2024-08-31T21:00:00:Z","depth":0,"parameterNumber":2,"parameterNumberName":"U-component_of_WINDS"},"data":[0,0,0,0,0,0,0,0,0,0,0,0,0,0,0,0,0,0,0,0,0,0,0,0,0,0,0,0,0,0,0,0,0,0,0,0,0,0,0,0,0,0,0,0,0,0,0,0,0,0,0,0,0,0,0,0,0,0,-2.9084,-2.9085,0,-2.9165,-2.9166,-2.9166,-2.9092,-2.9089,-2.9086,-2.9083,-2.9168,-2.9173,-2.9178,0,0,0,0,0,0,0,0,0,0,0,0,0,-2.8868,-2.8872,-2.9084,-2.9085,-2.9086,-2.9164,-2.9166,-2.9167,-2.9093,-2.9089,-2.9085,-2.9082,-2.9166,-2.9172,-2.9178,0,0,0,0,0,0,0,0,0,0,0,0,0,-2.8957,-2.8874,-2.9084,-2.9058,-2.9057,-2.9164,-2.9166,-2.9167,-2.9093,-2.9089,-2.9084,-2.908,-2.9164,-2.9172,-2.9179,-2.9316,0,0,-2.9202,-2.9205,0,0,0,0,0,0,0,0,-2.8952,-2.8965,-2.9061,-2.906,-2.9059,-2.9114,-2.912,-2.9217,-2.9094,-2.908,-2.9083,-2.9078,-2.9154,-2.9162,-2.9187,-2.932,-2.9324,-2.9203,-2.9207,-2.9211,-2.9213,0,0,0,0,0,0,0,-2.8946,-2.8961,-2.9116,-2.9063,-2.9061,-2.9044,-2.9051,-2.9138,-2.9141,-2.9081,-2.9075,-2.9086,-2.9152,-2.918,-2.9188,-2.9325,-2.9203,-2.9209,-2.9214,-2.9217,-2.9574,-2.9579,0,0,0,0,0,0,-2.8942,-2.8956,-2.9113,-2.9118,-2.8993,-2.9051,-2.906,-2.9101,-2.914,-2.9141,-2.909,-2.9082,-2.9169,-2.9179,-2.9191,-2.9353,-2.9211,-2.9218,-2.9222,-2.9569,-2.9575,-2.9581,0,0,0,0,0,0,-2.8938,-2.8957,-2.911,-2.9036,-2.9054,-2.906,-2.9106,-2.9105,-2.9132,-2.9147,-2.9147,-2.9117,-2.9166,-2.918,-2.9285,-2.9355,-2.9221,-2.9228,-2.9564,-2.9571,-2.9578,-2.968,0,0,0,0,0,0,-2.8932,-2.8955,-2.9007,-2.9038,-2.9058,-2.9203,-2.9111,-2.9109,-2.9145,-2.9136,-2.9172,-2.9174,-2.9163,-2.9274,-2.9293,-2.9363,-2.9234,-2.9557,-2.9567,-2.9576,-2.967,-2.9689,-2.9706,0,0,0,0,0,-2.8924,-2.9033,-2.901,-2.9029,-2.9123,-2.9207,-2.9219,-2.9203,-2.9151,-2.9203,-2.9213,-2.9173,-2.9345,-2.9286,-2.9306,-2.938,-2.9553,-2.9564,-2.9575,-2.9662,-2.9686,-2.9706,0,0,0,0,0,0,-2.9011,-2.9037,-2.9011,-2.9133,-2.9168,-2.9194,-2.9259,-2.9229,-2.9281,-2.927,-2.925,-2.9259,-2.9369,-2.9385,-2.9319,-2.9514,-2.944,-2.9456,-2.9499,-2.9522,-2.954,-2.9533,-2.924,0,0,0,0,0,-2.9045,-2.911,-2.9129,-2.9235,-2.9254,-2.9254,-2.929,-2.9275,-2.9311,-2.9326,-2.9343,-2.938,-2.9442,-2.9483,-2.9541,-2.9672,-2.9679,-2.9733,-2.9751,-2.9766,-2.978,-2.985,-2.9874,-2.9617,-2.9617,-2.9617,0,0,-2.9114,-2.9136,-2.9179,-2.9253,-2.9278,-2.9347,-2.9267,-2.9343,-2.9394,-2.9337,-2.9437,-2.9451,-2.9491,-2.961,-2.9663,-2.9626,-2.9852,-2.978,-2.9792,-2.9797,-2.9864,-2.9888,-2.9909,-2.9625,-2.9623,-2.9622,0,0,-2.9276,-2.93,-2.9389,-2.9417,-2.9456,-2.9455,-2.9477,-2.9508,-2.9515,-2.9614,-2.9573,-2.9634,-2.9742,-2.9772,-2.9801,-2.9975,-2.994,-2.9995,-3.0089,-3.0158,-3.0178,-3.0195,-3.0257,-3.0279,-3.0008,-3.0009,-3.0009,0,-2.9358,-2.9458,-2.944,-2.9519,-2.9552,-2.9504,-2.9595,-2.9623,-2.968,-2.9705,-2.9663,-2.9797,-2.9821,-2.9945,-2.9987,-3.0013,-3.0038,-2.999,-3.0176,-3.0194,-3.021,-3.0268,-3.0291,-3.0015,-3.0014,-3.0013,-3.0013,0,-2.9557,-2.9628,-2.9696,-2.9751,-2.9792,-2.9877,-2.9872,-2.9917,-2.9899,-2.9903,-3.0005,-3.0032,-3.0094,-3.0123,-3.0107,-3.0246,-3.0222,-3.0179,-3.0104,-3.0241,-3.0295,-3.0317,-3.0024,-3.0021,-3.002,-3.0018,0,0,-2.9774,-2.9818,-2.9843,-2.9867,-2.9907,-2.9962,-3.0045,-3.0106,-3.0144,-3.0186,-3.0254,-3.0347,-3.0307,-3.0341,-3.0328,-3.0388,-3.0523,-3.0337,-3.0338,-3.037,-3.0677,-3.0708,-3.0734,-3.0501,-3.0505,-3.0509,-3.0673,0,-2.9936,-3.0079,-3.0065,-3.0201,-3.0266,-3.0222,-3.0294,-3.0327,-3.0333,-3.039,-3.0398,-3.0463,-3.0406,-3.0426,-3.0484,-3.0494,-3.0584,-3.0482,-3.0565,-3.0568,-3.0555,-3.0763,-3.0796,-3.095,-3.0695,-3.0698,-3.0701,0,-3.0144,-3.0191,-3.0333,-3.0363,-3.039,-3.0455,-3.0509,-3.0564,-3.0601,-3.0601,-3.0639,-3.0616,-3.07,-3.0625,-3.074,-3.0671,-3.0705,-3.0715,-3.0721,-3.0726,-3.0642,-3.0773,-3.0999,-3.1021,-3.0734,-3.0731,-3.0729,0,-3.0287,-3.0387,-3.0484,-3.0506,-3.0544,-3.0591,-3.0609,-3.0641,-3.0678,-3.0726,-3.075,-3.0808,-3.0839,-3.0885,-3.0878,-3.0823,-3.0996,-3.092,-3.0998,-3.0998,-3.1035,-3.1032,-3.1268,-3.1059,-3.1059,-3.1058,-3.1058,0,-3.0468,-3.0557,-3.0549,-3.0609,-3.0707,-3.069,-3.0788,-3.0801,-3.083,-3.0892,-3.0859,-3.0918,-3.0905,-3.0965,-3.096,-3.1056,-3.1071,-3.1074,-3.1071,-3.1076,-3.1076,-3.1096,-3.1085,-3.1064,-3.1063,-3.1062,-3.1061,0,-3.0643,-3.0642,-3.0745,-3.0772,-3.0781,-3.0852,-3.0876,-3.0933,-3.0937,-3.1016,-3.1034,-3.104,-3.1109,-3.1106,-3.1184,-3.1181,-3.1299,-3.1285,-3.1286,-3.1282,-3.1361,-3.1353,-3.1616,-3.165,-3.1421,-3.1423,-3.1425,0,-3.0758,-3.0825,-3.0859,-3.0898,-3.0919,-3.0982,-3.1019,-3.1007,-3.1047,-3.1094,-3.1146,-3.1211,-3.1262,-3.1373,-3.1385,-3.1444,-3.143,-3.1519,-3.1439,-3.1442,-3.143,-3.1426,-3.1432,-3.1534,-3.1537,-3.1539,-3.154,0,-3.0962,-3.0958,-3.1013,-3.1068,-3.1113,-3.1156,-3.1195,-3.1229,-3.1221,-3.1268,-3.1337,-3.1377,-3.1456,-3.1521,-3.1578,-3.1597,-3.1568,-3.1566,-3.1587,-3.1591,-3.1589,-3.159,-3.1327,-3.1559,-3.1557,-3.1556,-3.1555,-3.1554,-3.111,-3.1167,-3.12,-3.1262,-3.129,-3.1328,-3.1382,-3.1393,-3.1449,-3.1512,-3.1502,-3.1578,-3.1614,-3.1687,-3.1712,-3.1773,-3.1742,-3.1772,-3.178,-3.1787,-3.1795,-3.1581,-3.1784,-3.1783,-3.1782,-3.1782,-3.1782,0,-3.1311,-3.133,-3.1387,-3.1442,-3.1492,-3.1459,-3.1501,-3.1545,-3.1612,-3.1648,-3.1699,-3.1778,-3.1841,-3.1858,-3.1919,-3.1964,-3.1952,-3.198,-3.1976,-3.1981,-3.1821,-3.1796,-3.1989,-3.1989,-3.1989,-3.1989,-3.1989,-3.1989,-3.1421,-3.1515,-3.1515,-3.1624,-3.1642,-3.1716,-3.1743,-3.1778,-3.1805,-3.1895,-3.1947,-3.1957,-3.1986,-3.2049,-3.2105,-3.2109,-3.2132,-3.2166,-3.2164,-3.2013,-3.1992,-3.1972,-3.1949,-3.2171,-3.2171,-3.2319,-3.232,-3.2321]},{"header":{"parameterUnit":"m.s-1","parameterCategory":1,"la1":30.2991,"la2":30.254,"lo1":-89.0895,"lo2":-89.0444,"dy":0.0017,"dx":0.0017,"nx":28,"ny":28,"refTime":"2024-08-31T21:00:00:Z","depth":0,"parameterNumber":3,"parameterNumberName":"V-component_of_WINDS"},"data":[0,0,0,0,0,0,0,0,0,0,0,0,0,0,0,0,0,0,0,0,0,0,0,0,0,0,0,0,0,0,0,0,0,0,0,0,0,0,0,0,0,0,0,0,0,0,0,0,0,0,0,0,0,0,0,0,0,0,-0.5239,-0.524,0,-0.534,-0.5341,-0.5343,-0.5439,-0.544,-0.5441,-0.5443,-0.5538,-0.554,-0.5541,0,0,0,0,0,0,0,0,0,0,0,0,0,-0.5121,-0.5123,-0.5239,-0.524,-0.5242,-0.534,-0.5342,-0.5343,-0.5439,-0.544,-0.5442,-0.5443,-0.5538,-0.554,-0.5541,0,0,0,0,0,0,0,0,0,0,0,0,0,-0.5192,-0.5123,-0.5239,-0.5301,-0.5308,-0.534,-0.5342,-0.5343,-0.5438,-0.544,-0.5442,-0.5444,-0.5537,-0.554,-0.5542,-0.5517,0,0,-0.5548,-0.5549,0,0,0,0,0,0,0,0,-0.5188,-0.5196,-0.5291,-0.5297,-0.5305,-0.5379,-0.5335,-0.5401,-0.5438,-0.5389,-0.5443,-0.5445,-0.5483,-0.549,-0.5505,-0.5522,-0.5526,-0.5548,-0.5549,-0.555,-0.5551,0,0,0,0,0,0,0,-0.5183,-0.5192,-0.5279,-0.5292,-0.5301,-0.5322,-0.5334,-0.5348,-0.5424,-0.5393,-0.54,-0.5411,-0.5487,-0.5502,-0.5508,-0.5527,-0.5548,-0.555,-0.5551,-0.5552,-0.5528,-0.5527,0,0,0,0,0,0,-0.5169,-0.5188,-0.5276,-0.5282,-0.525,-0.5323,-0.5336,-0.5353,-0.5424,-0.5437,-0.541,-0.5416,-0.5498,-0.5505,-0.5511,-0.5487,-0.555,-0.5552,-0.5554,-0.553,-0.5528,-0.5526,0,0,0,0,0,0,-0.5167,-0.5176,-0.5272,-0.5237,-0.5251,-0.5323,-0.5341,-0.5354,-0.5369,-0.5437,-0.545,-0.5412,-0.55,-0.5508,-0.5515,-0.5492,-0.5553,-0.5555,-0.5532,-0.5529,-0.5527,-0.5438,0,0,0,0,0,0,-0.5163,-0.5175,-0.5168,-0.5236,-0.5252,-0.5276,-0.534,-0.5355,-0.5374,-0.5382,-0.5442,-0.5454,-0.5502,-0.5512,-0.5517,-0.5496,-0.5557,-0.5535,-0.5531,-0.5528,-0.5443,-0.5433,-0.5423,0,0,0,0,0,-0.5158,-0.5137,-0.5167,-0.5177,-0.5246,-0.5274,-0.5283,-0.5341,-0.5371,-0.5364,-0.5407,-0.5452,-0.5494,-0.5512,-0.5519,-0.5497,-0.5537,-0.5532,-0.5528,-0.5448,-0.5435,-0.5424,0,0,0,0,0,0,-0.5062,-0.5147,-0.5181,-0.5183,-0.5221,-0.5291,-0.5283,-0.5325,-0.5354,-0.536,-0.5429,-0.5441,-0.544,-0.547,-0.5488,-0.5477,-0.5521,-0.5518,-0.5458,-0.5446,-0.5436,-0.5428,-0.5559,0,0,0,0,0,-0.5041,-0.506,-0.5133,-0.5126,-0.5144,-0.521,-0.5225,-0.5266,-0.5307,-0.5323,-0.5367,-0.5403,-0.5425,-0.5437,-0.546,-0.5449,-0.5462,-0.5437,-0.5427,-0.5418,-0.5414,-0.5409,-0.5399,-0.5512,-0.5512,-0.5512,0,0,-0.4997,-0.5047,-0.5054,-0.5108,-0.5143,-0.5158,-0.5223,-0.5236,-0.5248,-0.5325,-0.5334,-0.5368,-0.5412,-0.541,-0.541,-0.5434,-0.5386,-0.5413,-0.5406,-0.5407,-0.5404,-0.5393,-0.5383,-0.5509,-0.551,-0.551,0,0,-0.4926,-0.4966,-0.4965,-0.4999,-0.5051,-0.5095,-0.5095,-0.5159,-0.5185,-0.5196,-0.5254,-0.5267,-0.5303,-0.5332,-0.5352,-0.5291,-0.5333,-0.5297,-0.5244,-0.5238,-0.5229,-0.5221,-0.5198,-0.5189,-0.5293,-0.5293,-0.5293,0,-0.4864,-0.4893,-0.4958,-0.4969,-0.499,-0.5064,-0.5062,-0.509,-0.5146,-0.5158,-0.5185,-0.5231,-0.5266,-0.5271,-0.5256,-0.527,-0.527,-0.529,-0.5225,-0.5218,-0.5212,-0.5191,-0.5182,-0.5288,-0.5289,-0.5289,-0.529,0,-0.4814,-0.4832,-0.4825,-0.488,-0.4901,-0.4904,-0.4968,-0.4981,-0.5021,-0.5061,-0.5071,-0.5116,-0.5149,-0.5154,-0.5192,-0.5163,-0.5176,-0.5213,-0.5258,-0.5195,-0.5176,-0.5169,-0.5281,-0.5283,-0.5284,-0.5286,0,0,-0.4683,-0.4776,-0.4772,-0.4797,-0.4861,-0.4875,-0.4881,-0.4917,-0.4926,-0.4962,-0.4967,-0.4996,-0.5031,-0.5052,-0.5094,-0.5089,-0.5037,-0.5127,-0.5129,-0.5107,-0.5007,-0.4978,-0.4967,-0.5066,-0.5064,-0.5063,-0.5002,0,-0.4621,-0.464,-0.47,-0.4699,-0.4716,-0.4786,-0.4791,-0.4829,-0.4867,-0.4885,-0.4926,-0.4945,-0.499,-0.5003,-0.5002,-0.5044,-0.5017,-0.5049,-0.5069,-0.5069,-0.5054,-0.4958,-0.4928,-0.4868,-0.4996,-0.4995,-0.4994,0,-0.4551,-0.4585,-0.4587,-0.4651,-0.466,-0.4664,-0.4701,-0.4718,-0.4762,-0.4789,-0.4814,-0.4862,-0.487,-0.4913,-0.4924,-0.4944,-0.4956,-0.4978,-0.4977,-0.4979,-0.5026,-0.4956,-0.485,-0.4841,-0.4983,-0.4984,-0.4985,0,-0.4454,-0.45,-0.4508,-0.4528,-0.4601,-0.4603,-0.4633,-0.4679,-0.4696,-0.4728,-0.4739,-0.477,-0.4786,-0.4808,-0.4861,-0.4888,-0.4865,-0.4914,-0.4887,-0.4885,-0.4877,-0.4877,-0.477,-0.4887,-0.4887,-0.4887,-0.4887,0,-0.4378,-0.4376,-0.4465,-0.4469,-0.4469,-0.4536,-0.4533,-0.4569,-0.461,-0.462,-0.4682,-0.469,-0.4761,-0.4776,-0.4818,-0.482,-0.4827,-0.4848,-0.4858,-0.4841,-0.4838,-0.4849,-0.4853,-0.4885,-0.4885,-0.4886,-0.4886,0,-0.4268,-0.4328,-0.4341,-0.4411,-0.4428,-0.4424,-0.4482,-0.4488,-0.453,-0.4543,-0.4549,-0.4614,-0.4636,-0.4692,-0.4727,-0.4755,-0.4744,-0.4766,-0.473,-0.4737,-0.4706,-0.4708,-0.4601,-0.4589,-0.4715,-0.4713,-0.4712,0,-0.4215,-0.4216,-0.4286,-0.4299,-0.4328,-0.4347,-0.4366,-0.4432,-0.4448,-0.4499,-0.4497,-0.4524,-0.4549,-0.4579,-0.4628,-0.4655,-0.4676,-0.4637,-0.468,-0.4663,-0.4674,-0.4672,-0.4672,-0.4627,-0.4625,-0.4624,-0.4623,0,-0.4113,-0.4143,-0.417,-0.4206,-0.4227,-0.4258,-0.4292,-0.4299,-0.4372,-0.4387,-0.4412,-0.4431,-0.4468,-0.4493,-0.4528,-0.4556,-0.46,-0.4609,-0.4604,-0.4585,-0.4564,-0.4574,-0.4703,-0.4611,-0.4612,-0.4613,-0.4613,-0.4614,-0.403,-0.4033,-0.4084,-0.411,-0.4144,-0.4174,-0.4183,-0.4227,-0.4249,-0.4287,-0.4324,-0.4343,-0.4386,-0.4438,-0.4463,-0.4478,-0.4501,-0.4494,-0.4492,-0.4488,-0.448,-0.4564,-0.4484,-0.4485,-0.4485,-0.4485,-0.4486,0,-0.393,-0.3966,-0.3991,-0.4038,-0.4058,-0.4102,-0.4142,-0.4155,-0.4173,-0.421,-0.4234,-0.4261,-0.4286,-0.4337,-0.4366,-0.4367,-0.4388,-0.4372,-0.4372,-0.4377,-0.4458,-0.4459,-0.4355,-0.4355,-0.4355,-0.4355,-0.4355,-0.4355,-0.388,-0.3889,-0.3925,-0.3949,-0.3985,-0.4007,-0.4026,-0.4054,-0.4084,-0.4112,-0.4134,-0.4169,-0.4211,-0.4243,-0.4267,-0.4281,-0.4288,-0.4265,-0.4285,-0.4359,-0.4372,-0.4383,-0.4385,-0.4266,-0.4266,-0.4203,-0.4203,-0.4202]}]]